Simultaneous Nadir Overpasses (SNOs) Predictions

Prediction of SNOs between GOES-17 and TERRA Satellite Orbit:

Table of predicted SNOs for the next 14.0 days since TLE Epoch: 6/29/2024
Index Date Time (GOES-17) GOES-17 Lat,Lon TERRA Lat,Lon Distance(km) Time Diff (sec)
1 06/29/2024 05:01:28 0.02,-104.70 -0.71,-108.37 416.20 80
2 07/01/2024 04:41:20 0.00,-104.70 0.14,-104.15 63.28 80
3 07/01/2024 17:01:14 0.01,-104.73 0.90,-108.99 484.15 80
4 07/03/2024 16:43:46 0.01,-104.73 0.01,-104.78 5.45 80
5 07/05/2024 16:26:17 0.01,-104.73 -0.84,-100.56 473.60 80
6 07/06/2024 04:48:59 -0.01,-104.71 -0.17,-105.43 82.14 80
7 07/08/2024 04:28:50 0.01,-104.71 0.72,-101.21 397.36 80
8 07/08/2024 16:48:45 -0.01,-104.74 0.24,-106.06 150.31 80
9 07/10/2024 16:33:55 -0.02,-104.75 -0.62,-101.84 330.01 80
10 07/11/2024 04:53:57 0.02,-104.73 -0.36,-106.72 225.19 80
